Weather History for Little Rock, AR

Change the Weather History Date:

Sunday, January 12, 2014

  Actual Average Record
Temperature  
Mean Temperature 49 °F 41 °F  
Max Temperature 68 °F 50 °F 76 °F (2000)
Min Temperature 30 °F 31 °F -8 °F (1918)
Degree Days  
Heating Degree Days 16 24  
Month to date heating degree days 357 288  
Since 1 July heating degree days 1627 1485  
Cooling Degree Days 0 0  
Month to date cooling degree days 0 0  
Year to date cooling degree days 0 0  
Moisture  
Dew Point 31 °F    
Average Humidity 57    
Maximum Humidity 92    
Minimum Humidity 22    
Precipitation  
Precipitation 0.00 in 0.11 in 2.32 in (1930)
Month to date precipitation 2.33 1.47  
Year to date precipitation 2.33 1.47  
Snow  
Snow 0.00 in 0.10 in 5.00 in (1982)
Month to date snowfall T 0.6  
Since 1 July snowfall 1.3 0.8  
Snow Depth 0.00 in    
Sea Level Pressure  
Sea Level Pressure 29.99 in    
Wind  
Wind Speed 9 mph (SSW)    
Max Wind Speed 21 mph    
Max Gust Speed 28 mph    
Visibility 10 miles    
Events      
T = Trace of Precipitation, MM = Missing Value Source: NWS Daily Summary

Daily Weather History Graph

Daily Weather History Graph

Search for Another Location

Airport:

Trip Planner

Search our weather history database for the weather conditions in past years. The results will help you decide how hot, cold, wet, or windy it might be!

Date:

Astronomy

Jan. 12, 2014 Rise Set
Actual Time 7:16 AM CST 5:18 PM CST
Civil Twilight 6:48 AM CST 5:46 PM CST
Nautical Twilight 6:17 AM CST 6:17 PM CST
Astronomical Twilight 5:47 AM CST 6:47 PM CST
Moon 2:45 PM CST (1/12) 4:16 AM CST (1/12)
Length of Visible Light 10h 57m
Length of Day
10h 02m
Waxing Gibbous, 90% of the Moon is Illuminated
Jan 12
Waxing Gibbous
Jan 15
Full
Jan 23
Last Quarter
Jan 30
New
Feb 6
First Quarter

Hourly Weather History & Observations

Time (CST) Temp. Windchill Dew Point Humidity Pressure Visibility Wind Dir Wind Speed Gust Speed Precip Events Conditions
12:53 AM 37.0 °F 31.6 °F 30.0 °F 76% 30.06 in 10.0 mi WSW 6.9 mph - N/A   Clear
1:53 AM 37.0 °F 31.0 °F 30.0 °F 76% 30.07 in 10.0 mi WSW 8.1 mph - N/A   Clear
2:53 AM 36.0 °F 30.3 °F 30.0 °F 79% 30.08 in 10.0 mi WSW 6.9 mph - N/A   Clear
3:53 AM 34.0 °F - 28.9 °F 82% 30.09 in 10.0 mi Calm Calm - N/A   Clear
4:53 AM 33.1 °F - 30.0 °F 89% 30.09 in 10.0 mi Calm Calm - N/A   Clear
5:53 AM 30.9 °F - 27.0 °F 85% 30.08 in 10.0 mi Calm Calm - N/A   Clear
6:53 AM 30.9 °F 27.5 °F 28.0 °F 89% 30.08 in 10.0 mi SSW 3.5 mph - N/A   Clear
7:53 AM 32.0 °F - 28.0 °F 85% 30.09 in 10.0 mi Calm Calm - N/A   Clear
8:53 AM 39.9 °F - 32.0 °F 73% 30.12 in 10.0 mi Calm Calm - N/A   Clear
9:53 AM 51.1 °F - 33.1 °F 50% 30.10 in 10.0 mi South 11.5 mph - N/A   Clear
10:42 AM 57.2 °F - 33.8 °F 41% 30.07 in 1.8 mi South 8.1 mph - N/A   Haze
10:53 AM 59.0 °F - 33.1 °F 38% 30.07 in 10.0 mi South 8.1 mph - N/A   Clear
11:53 AM 63.0 °F - 30.9 °F 30% 30.03 in 10.0 mi SSW 15.0 mph - N/A   Clear
12:53 PM 64.9 °F - 30.0 °F 27% 29.97 in 10.0 mi South 16.1 mph 21.9 mph N/A   Clear
1:53 PM 66.9 °F - 28.9 °F 24% 29.93 in 10.0 mi South 13.8 mph 21.9 mph N/A   Partly Cloudy
2:53 PM 66.9 °F - 27.0 °F 22% 29.92 in 10.0 mi South 18.4 mph 25.3 mph N/A   Partly Cloudy
3:53 PM 66.0 °F - 28.9 °F 25% 29.90 in 10.0 mi South 13.8 mph 20.7 mph N/A   Partly Cloudy
4:53 PM 63.0 °F - 30.0 °F 29% 29.90 in 10.0 mi South 11.5 mph - N/A   Partly Cloudy
5:53 PM 60.1 °F - 30.9 °F 33% 29.89 in 10.0 mi South 12.7 mph - N/A   Scattered Clouds
6:53 PM 60.1 °F - 30.9 °F 33% 29.89 in 10.0 mi South 15.0 mph - N/A   Scattered Clouds
7:53 PM 57.0 °F - 32.0 °F 39% 29.89 in 10.0 mi South 9.2 mph - N/A   Scattered Clouds
8:53 PM 60.1 °F - 32.0 °F 35% 29.87 in 10.0 mi South 12.7 mph 18.4 mph N/A   Mostly Cloudy
9:53 PM 61.0 °F - 32.0 °F 34% 29.86 in 10.0 mi South 12.7 mph 23.0 mph N/A   Mostly Cloudy
10:53 PM 60.1 °F - 33.1 °F 36% 29.85 in 10.0 mi South 12.7 mph - N/A   Mostly Cloudy
11:53 PM 57.9 °F - 33.1 °F 39% 29.86 in 10.0 mi SSW 9.2 mph - N/A   Mostly Cloudy